TOURFACTS.DK  
Stats and Facts from Tour de France.

Tour de France 2019 starts in 347 days
  Riders   Stages   Teams   Summits   Yearly  


 
Search by year

After 2018 - Stage 14:
 15000 starters.
  5163 different riders.
  639 teams.
  2246 stages.
  456 restdays.
  441957.60 km.
  5678 abandonnees.


Top 3
GC
Christopher Froome86:20:55
Rigoberto Urán86:21:49
Romain Bardet86:23:15
Climb
Warren Barguil169 pt.
Primoz Roglic80 pt.
Thomas De Gendt64 pt.
Sprint
Michael Matthews359 pt.
André Greipel234 pt.
Edvald Boasson Hagen220 pt.
Youth
Simon Yates86:27:09
Louis Meintjes86:29:15
Emanuel Buchmann86:54:16
Facts from Tour de France 2002
  |   Stages.  |   Stage winners.  |   Days in yellow  |   Average speed.  |   Route.  |   Teams.  |   All riders.  |   Rookies.  |  

  |   Withdrawls.  |   GC.  |   Polka  |   Green  |   White  |   Summits. (In tour)  |   Miscellaneous.  |  

Stage 16 on July 24th. 2002
         Owning:    Lance Armstrong    
Pick a stage:  Pro 1 2 3 4 5 6 7 8 9 10 11 12 13 14 15 16 17 18 19 20
From: Les Deux-Alpes    To: La PlagneDist:179.50 km.
Cat: HCol du GalibierCOLSantiago Botero
40 points
 
Cat: HCol de la MadeleineNEDMichael Boogerd
40 points
 
Cat: HLa Plagne - AimeNEDMichael Boogerd
40 points
 

Average speed for all riders in stage:  29,170 km./hr.
    Place:Name:Team:Time:Km/h:
NEDMichael BoogerdNLDRabobank05:48:29  +  00:00:00=30,905 
2 ITAWladimir BelliITAFassa Bortolo05:48:29  +  00:00:00=30,905 
3 ESPDaniel AtienzaFRACofidis Credit Par Telephone05:48:29  +  00:00:00=30,905 
4 FRAAnthony MorinFRACredit Agricole05:48:29  +  00:00:00=30,905 
5 BELLudo DierckxsensITALampre-Daikin05:48:29  +  00:00:00=30,905 
6 BELChristophe BrandtBELLotto-Adecco05:48:29  +  00:00:00=30,905 
7 USABobby JulichUSATeam Telekom05:48:29  +  00:00:00=30,905 
8 UKRVolodymir GustovITAFassa Bortolo05:48:29  +  00:00:00=30,905 
9 COLVictor Hugo PenaUSAUS Postal Service05:48:29  +  00:00:00=30,905 
10 CZETomas KonecnyBELDomo-Farm Frites05:48:29  +  00:00:00=30,905 
11 FRAStéphane BergesFRAAg2r Prevoyance05:48:29  +  00:00:00=30,905 
12 ESPMikel PraderaESPO.N.C.E.-Eroski05:48:29  +  00:00:00=30,905 
13 URSViatcheslav EkimovUSAUS Postal Service05:48:29  +  00:00:00=30,905 
14 CZEPavel PadrnosUSAUS Postal Service05:48:29  +  00:00:00=30,905 
15 USAGeorge HincapieUSAUS Postal Service05:48:29  +  00:00:00=30,905 
16 GERGrischa NiermannNLDRabobank05:48:29  +  00:00:00=30,905 
17 NEDAddy EngelsNLDRabobank05:48:29  +  00:00:00=30,905 
18 RSARobert HunterITAMapei-Quick Step05:48:29  +  00:00:00=30,905 
19 ESPMarcos SerranoESPO.N.C.E.-Eroski05:48:29  +  00:00:00=30,905 
20 BELSerge BaguetBELLotto-Adecco05:48:29  +  00:00:00=30,905 
21 ESPDavid EtxebarriaESPEuskaltel - Euskadi05:48:29  +  00:00:00=30,905 
22 BELMario AertsBELLotto-Adecco05:48:29  +  00:00:00=30,905 
23 UKRSerhiy HoncharITAFassa Bortolo05:48:29  +  00:00:00=30,905 
24 ITAGianluca BortolamiITATacconi Sport05:48:29  +  00:00:00=30,905 
25 
ESPCarlos SastreDNKTeam CSC-Tiscali05:49:54  +  00:01:25=30,780 
26 
USALance ArmstrongUSAUS Postal Service05:49:54  +  00:01:25=30,780 
27 ESPJoseba BelokiESPO.N.C.E.-Eroski05:50:31  +  00:02:02=30,726 
28 URSRaimondas RumsasITALampre-Daikin05:50:31  +  00:02:02=30,726 
29 USALevi LeipheimerNLDRabobank05:50:39  +  00:02:10=30,714 
30 ITAIvan BassoITAFassa Bortolo05:50:43  +  00:02:14=30,709 
31 PORJosé AzevedoESPO.N.C.E.-Eroski05:50:43  +  00:02:14=30,709 
32 COLSantiago BoteroESPKelme-Costa Blanca05:50:52  +  00:02:23=30,695 
33 ESPRoberto HerasUSAUS Postal Service05:50:54  +  00:02:25=30,693 
34 ESPFrancisco ManceboESPibanesto.com05:51:20  +  00:02:51=30,655 
35 ESPIgor GonzalezESPO.N.C.E.-Eroski05:53:08  +  00:04:39=30,498 
36 FRADavid MoncoutiéFRACofidis Credit Par Telephone05:53:33  +  00:05:04=30,462 
37 ESPJosé RubieraUSAUS Postal Service05:53:53  +  00:05:24=30,434 
38 ITAMassimiliano LelliFRACofidis Credit Par Telephone05:54:23  +  00:05:54=30,391 
39 FRANicolas VogondyFRAfdjeux.com05:54:23  +  00:05:54=30,391 
40 MARRichard VirenqueBELDomo-Farm Frites05:54:23  +  00:05:54=30,391 
41 ESPRoberto LaisekaESPEuskaltel - Euskadi05:54:23  +  00:05:54=30,391 
42 ESPUnai OsaESPibanesto.com05:55:02  +  00:06:33=30,335 
43 USATyler HamiltonDNKTeam CSC-Tiscali05:55:57  +  00:07:28=30,257 
44 FRAStéphane GoubertFRAJean Delatour05:56:16  +  00:07:47=30,230 
45 DENNicki SørensenDNKTeam CSC-Tiscali05:56:16  +  00:07:47=30,230 
46 RUSAlexandre BotcharovFRAAg2r Prevoyance05:56:41  +  00:08:12=30,195 
47 ITAIvan GottiITAAlessio05:57:17  +  00:08:48=30,144 
48 KAZAndrei KivilevFRACofidis Credit Par Telephone05:57:17  +  00:08:48=30,144 
49 POLDariusz BaranowskiESPibanesto.com05:57:30  +  00:09:01=30,126 
50 FRAFrédéric BessyFRACredit Agricole05:58:03  +  00:09:34=30,080 
51 FRALaurent BrochardFRAJean Delatour05:58:03  +  00:09:34=30,080 
52 GERUdo BöltsUSATeam Telekom05:58:03  +  00:09:34=30,080 
53 FRAPatrice HalgandFRAJean Delatour05:58:08  +  00:09:39=30,073 
54 FRACédric VasseurFRACofidis Credit Par Telephone05:58:08  +  00:09:39=30,073 
55 FRASylvain ChavanelFRABonjour05:58:23  +  00:09:54=30,052 
56 ITAEddy MazzoleniITATacconi Sport05:58:55  +  00:10:26=30,007 
57 FRAJean-Cyril RobinFRAfdjeux.com05:59:33  +  00:11:04=29,954 
58 ITADario FrigoITATacconi Sport05:59:37  +  00:11:08=29,949 
59 BELAxel MerckxBELDomo-Farm Frites06:00:18  +  00:11:49=29,892 
60 ESPMiguel Angel MartinezITAMapei-Quick Step06:00:20  +  00:11:51=29,889 
61 FRALudovic TurpinFRAAg2r Prevoyance06:01:11  +  00:12:42=29,819 
62 AUSStuart O'GradyFRACredit Agricole06:02:01  +  00:13:32=29,750 
63 SUIBeat ZbergNLDRabobank06:02:51  +  00:14:22=29,682 
64 ESPIñigo CuestaFRACofidis Credit Par Telephone06:06:59  +  00:18:30=29,347 
65 FRALaurent JalabertDNKTeam CSC-Tiscali06:07:27  +  00:18:58=29,310 
66 ITAMarzio BruseghinESPibanesto.com06:07:27  +  00:18:58=29,310 
67 ESPJosé Enrique GutierrezESPKelme-Costa Blanca06:07:27  +  00:18:58=29,310 
68 ITACristian MoreniITAAlessio06:07:27  +  00:18:58=29,310 
69 GERJörg JakscheESPO.N.C.E.-Eroski06:07:27  +  00:18:58=29,310 
70 ESPIban MayoESPEuskaltel - Euskadi06:07:27  +  00:18:58=29,310 
71 ESPIñigo ChaurreauFRAAg2r Prevoyance06:07:42  +  00:19:13=29,290 
72 ESPBingen FernandezFRACofidis Credit Par Telephone06:09:55  +  00:21:26=29,115 
73 HUNLaszlo BodrogiITAMapei-Quick Step06:11:41  +  00:23:12=28,976 
74 ESPDavid LatasaESPibanesto.com06:12:44  +  00:24:15=28,895 
75 ESPSantiago BlancoESPibanesto.com06:12:44  +  00:24:15=28,895 
76 ESPIsidro NozalESPO.N.C.E.-Eroski06:13:18  +  00:24:49=28,851 
77 DDRErik ZabelUSATeam Telekom06:15:01  +  00:26:32=28,719 
78 ITAFabio BaldatoITAFassa Bortolo06:15:01  +  00:26:32=28,719 
79 GERRolf AldagUSATeam Telekom06:15:01  +  00:26:32=28,719 
80 ITAAndrea PeronDNKTeam CSC-Tiscali06:15:01  +  00:26:32=28,719 
81 ITAMarco VeloITAFassa Bortolo06:15:01  +  00:26:32=28,719 
82 LUXBenoit JoachimUSAUS Postal Service06:15:01  +  00:26:32=28,719 
83 SUIThierry LoderFRAAg2r Prevoyance06:15:01  +  00:26:32=28,719 
84 ITAGian Matteo FagniniUSATeam Telekom06:15:09  +  00:26:40=28,709 
85 FRAChristophe MenginFRAfdjeux.com06:20:12  +  00:31:43=28,327 
86 ESPAbraham OlanoESPO.N.C.E.-Eroski06:20:12  +  00:31:43=28,327 
87 NEDServais KnavenBELDomo-Farm Frites06:22:55  +  00:34:26=28,126 
88 ITANicola LodaITAFassa Bortolo06:22:55  +  00:34:26=28,126 
89 NEDErik DekkerNLDRabobank06:22:55  +  00:34:26=28,126 
90 FRACyril DesselFRAJean Delatour06:22:55  +  00:34:26=28,126 
91 BELMarc WautersNLDRabobank06:22:55  +  00:34:26=28,126 
92 NEDLeon van BonBELDomo-Farm Frites06:22:55  +  00:34:26=28,126 
93 ITAMauro RadaelliITATacconi Sport06:22:55  +  00:34:26=28,126 
94 URSRaivis BelohvosciksITALampre-Daikin06:22:55  +  00:34:26=28,126 
95 NEDBram de GrootNLDRabobank06:22:55  +  00:34:26=28,126 
96 FRASébastien HinaultFRACredit Agricole06:22:55  +  00:34:26=28,126 
97 ITAEnrico CassaniBELDomo-Farm Frites06:22:55  +  00:34:26=28,126 
98 GERSteffen WesemannUSATeam Telekom06:22:55  +  00:34:26=28,126 
99 RUSSerguei IvanovITAFassa Bortolo06:22:55  +  00:34:26=28,126 
100 ITAMarco SerpelliniITALampre-Daikin06:22:55  +  00:34:26=28,126 
101 POLPiotr WadeckiBELDomo-Farm Frites06:22:55  +  00:34:26=28,126 
102 ESPPedro HorrilloITAMapei-Quick Step06:22:55  +  00:34:26=28,126 
103 ESPFrancisco CabelloESPKelme-Costa Blanca06:22:55  +  00:34:26=28,126 
104 ITAAndrea TafiITAMapei-Quick Step06:22:55  +  00:34:26=28,126 
105 FRAChristophe AgnoluttoFRAAg2r Prevoyance06:22:55  +  00:34:26=28,126 
106 AUTGerhard TrampuschITAMapei-Quick Step06:22:55  +  00:34:26=28,126 
107 BELHans De ClercqBELLotto-Adecco06:22:55  +  00:34:26=28,126 
108 BELPaul Van HyfteDNKTeam CSC-Tiscali06:22:55  +  00:34:26=28,126 
109 USAFloyd LandisUSAUS Postal Service06:22:55  +  00:34:26=28,126 
110 ITAAlessandro CortinovisITALampre-Daikin06:22:55  +  00:34:26=28,126 
111 ESPJavier PascualESPibanesto.com06:22:55  +  00:34:26=28,126 
112 SVKJán SvoradaITALampre-Daikin06:22:55  +  00:34:26=28,126 
113 SLOMartin HvastijaITAAlessio06:22:55  +  00:34:26=28,126 
114 ITADavide CasarottoITAAlessio06:22:55  +  00:34:26=28,126 
115 FRAJérôme PineauFRABonjour06:22:55  +  00:34:26=28,126 
116 FRAFranck RenierFRABonjour06:22:55  +  00:34:26=28,126 
117 FRAFrédéric GuesdonFRAfdjeux.com06:22:55  +  00:34:26=28,126 
118 FRAFranck BouyerFRABonjour06:22:55  +  00:34:26=28,126 
119 AUSBaden CookeFRAfdjeux.com06:22:55  +  00:34:26=28,126 
120 BELNico MattanFRACofidis Credit Par Telephone06:22:55  +  00:34:26=28,126 
121 ESPJosé GarciaESPibanesto.com06:22:55  +  00:34:26=28,126 
122 FRAStéphane AugeFRAJean Delatour06:22:55  +  00:34:26=28,126 
123 ITAAndrea BrognaraITAAlessio06:22:55  +  00:34:26=28,126 
124 ITAMassimo DonatiITATacconi Sport06:22:55  +  00:34:26=28,126 
125 ESPHaimar ZubeldiaESPEuskaltel - Euskadi06:22:55  +  00:34:26=28,126 
126 ITAMassimo ApollonioITATacconi Sport06:22:55  +  00:34:26=28,126 
127 DENJakob PiilDNKTeam CSC-Tiscali06:22:55  +  00:34:26=28,126 
128 GERDanilo HondoUSATeam Telekom06:22:55  +  00:34:26=28,126 
129 GERJens VoigtFRACredit Agricole06:22:55  +  00:34:26=28,126 
130 USAKevin LivingstonUSATeam Telekom06:22:55  +  00:34:26=28,126 
131 FRALaurent LefèvreFRAJean Delatour06:22:55  +  00:34:26=28,126 
132 FRASandy CasarFRAfdjeux.com06:22:55  +  00:34:26=28,126 
133 ESPConstantino ZaballaESPKelme-Costa Blanca06:22:55  +  00:34:26=28,126 
134 ESPJosé Angel VidalESPKelme-Costa Blanca06:22:55  +  00:34:26=28,126 
135 BELThierry MarichalBELLotto-Adecco06:22:55  +  00:34:26=28,126 
136 MLTDavid MillarFRACofidis Credit Par Telephone06:22:55  +  00:34:26=28,126 
137 FRAAndy FlickingerFRAAg2r Prevoyance06:22:55  +  00:34:26=28,126 
138 FRAAnthony LangellaFRACredit Agricole06:22:55  +  00:34:26=28,126 
139 NORThor HushovdFRACredit Agricole06:22:55  +  00:34:26=28,126 
140 RUSDenis MenchovESPibanesto.com06:22:55  +  00:34:26=28,126 
141 SUIRubens BertogliatiITALampre-Daikin06:22:55  +  00:34:26=28,126 
142 AUSRobbie McEwenBELLotto-Adecco06:22:55  +  00:34:26=28,126 
143 FRAEddy SeigneurFRAJean Delatour06:22:55  +  00:34:26=28,126 
144 FRAEmmanuel MagnienFRABonjour06:22:55  +  00:34:26=28,126 
145 VENUnai EtxebarriaESPEuskaltel - Euskadi06:22:55  +  00:34:26=28,126 
146 FRAJérôme BernardFRAJean Delatour06:22:55  +  00:34:26=28,126 
147 ITAGiuseppe GueriniUSATeam Telekom06:22:55  +  00:34:26=28,126 
148 AUSBradley McGeeFRAfdjeux.com06:22:55  +  00:34:26=28,126 
149 ESPIgor Flores GalarzaESPEuskaltel - Euskadi06:22:55  +  00:34:26=28,126 
150 NEDKarsten KroonNLDRabobank06:22:55  +  00:34:26=28,126 
151 FRAWalter BénéteauFRABonjour06:22:55  +  00:34:26=28,126 
152 RUSGuennadi MikhailovBELLotto-Adecco06:22:55  +  00:34:26=28,126 
153 FRADamien NazonFRABonjour06:22:55  +  00:34:26=28,126 
154 FRAChristophe EdaleineFRAJean Delatour06:22:55  +  00:34:26=28,126 
155 ESPGorka ArrizabalagaESPEuskaltel - Euskadi06:22:55  +  00:34:26=28,126 
156 URSArvis PiziksDNKTeam CSC-Tiscali06:22:55  +  00:34:26=28,126 

Withdrawls: 6
 
Rider
Team
Reason
31  ESPÓscar SevillaESPKelme-Costa BlancaDid not finish
72  BELDave BruylandtsBELDomo-Farm FritesExceeded time limit
77  COLFred RodriguezBELDomo-Farm FritesExceeded time limit
93  FRAJimmy CasperFRAfdjeux.comDid not finish
188  FRAChristophe OriolFRAAg2r PrevoyanceExceeded time limit
191  SUILaurent DufauxITAAlessioDid not finish

Todays birthdays.

1887  Donald Kirkham
1889  Théodore Abada
1911  Guillaume Chavard
1912  Jean Fontenay
1913  Fabien Galateau
1930  Roger Hassenforder
1930  Richard Van Genechten
1936  Philippe Gaudrillet
1937  Joseph Novales
1954  Hans-Peter Jakst
1960  Manuel Ramos
1973  David Etxebarria
1974  Rik Verbrugghe
1976  Jörg Jaksche




Visits: